KI5NXU Weather Reports


Display with metric or nautical units.
time (UTC)temp
F
wind
direction
speed
MPH
gust
MPH
rain 1hr
in
rain 24hr
in
rain mn
in
humidity
%
barometer
mb
20260831225243 102 147 2.0 6.0 0.00 0.00 0.00 28 1012.9
20260831224738 102 132 3.0 3.0 0.00 0.00 0.00 28 1012.9
20260831224233 102 159 3.0 5.0 0.00 0.00 0.00 28 1013.3
20260831223728 101 195 5.0 7.0 0.00 0.00 0.00 29 1013.3
20260831223225 102 186 3.0 5.0 0.00 0.00 0.00 27 1013.3
20260831222715 102 188 2.0 3.0 0.00 0.00 0.00 27 1013.2
20260831222210 103 157 3.0 6.0 0.00 0.00 0.00 26 1013.3
20260831221705 104 136 7.0 9.0 0.00 0.00 0.00 26 1013.2
20260831221201 105 155 2.0 3.0 0.00 0.00 0.00 26 1012.9
20260831220650 103 159 2.0 2.0 0.00 0.00 0.00 27 1013.0
20260831220145 102 86 3.0 3.0 0.00 0.00 0.00 28 1013.0
20260831215640 103 124 2.0 6.0 0.00 0.00 0.00 27 1013.5
20260831215136 104 164 3.0 5.0 0.00 0.00 0.00 26 1013.0
20260831214633 104 182 2.0 3.0 0.00 0.00 0.00 27 1013.5
20260831214129 103 125 1.0 2.0 0.00 0.00 0.00 27 1013.5
20260831213626 102 143 1.0 2.0 0.00 0.00 0.00 28 1013.7
20260831213120 102 183 1.0 1.0 0.00 0.00 0.00 28 1013.6
20260831212617 103 122 2.0 2.0 0.00 0.00 0.00 28 1013.7
20260831212113 103 183 5.0 6.0 0.00 0.00 0.00 28 1013.8
20260831211612 103 142 2.0 3.0 0.00 0.00 0.00 28 1013.9
20260831211111 104 219 7.0 9.0 0.00 0.00 0.00 26 1013.9
20260831210606 103 194 3.0 5.0 0.00 0.00 0.00 27 1014.0
20260831205602 103 153 3.0 5.0 0.00 0.00 0.00 27 1014.1
20260831205058 104 172 3.0 5.0 0.00 0.00 0.00 27 1014.1
20260831204553 101 207 5.0 6.0 0.00 0.00 0.00 29 1014.4
20260831204051 100 246 4.0 6.0 0.00 0.00 0.00 30 1014.1
20260831203546 102 201 6.0 7.0 0.00 0.00 0.00 29 1014.1
20260831203046 103 140 3.0 5.0 0.00 0.00 0.00 28 1014.6
20260831202545 103 199 2.0 2.0 0.00 0.00 0.00 29 1014.5
20260831202045 100 125 1.0 2.0 0.00 0.00 0.00 30 1014.5
20260831201543 102 148 1.0 1.0 0.00 0.00 0.00 30 1014.6
20260831201039 101 153 1.0 2.0 0.00 0.00 0.00 30 1014.4
20260831200535 102 177 5.0 7.0 0.00 0.00 0.00 30 1014.8
20260831200034 101 151 2.0 2.0 0.00 0.00 0.00 30 1014.9
20260831195530 99 270 5.0 6.0 0.00 0.00 0.00 32 1014.8
20260831195025 100 220 5.0 6.0 0.00 0.00 0.00 30 1015.0
20260831194514 101 145 1.0 1.0 0.00 0.00 0.00 30 1015.2
20260831194009 100 181 2.0 5.0 0.00 0.00 0.00 30 1015.1
20260831193504 100 181 3.0 5.0 0.00 0.00 0.00 31 1015.0
20260831192959 100 172 1.0 2.0 0.00 0.00 0.00 32 1015.0
20260831192454 100 165 1.0 2.0 0.00 0.00 0.00 32 1015.3
20260831191949 100 159 1.0 2.0 0.00 0.00 0.00 32 1015.3
20260831191445 100 173 2.0 3.0 0.00 0.00 0.00 32 1015.3
20260831190941 100 212 5.0 6.0 0.00 0.00 0.00 32 1015.3
20260831190436 98 191 6.0 8.0 0.00 0.00 0.00 33 1015.4
20260831185935 98 96 0.0 1.0 0.00 0.00 0.00 33 1015.2
20260831185431 100 98 4.0 6.0 0.00 0.00 0.00 32 1015.6
20260831184930 99 159 2.0 2.0 0.00 0.00 0.00 32 1015.4
20260831184425 98 172 3.0 3.0 0.00 0.00 0.00 36 1015.7
20260831183921 98 159 1.0 2.0 0.00 0.00 0.00 35 1016.0
20260831183420 99 151 2.0 5.0 0.00 0.00 0.00 34 1015.8
20260831182914 95 203 6.0 7.0 0.00 0.00 0.00 37 1016.0
20260831182409 96 232 5.0 6.0 0.00 0.00 0.00 38 1015.8
20260831181904 98 221 9.0 10.0 0.00 0.00 0.00 36 1016.2
20260831181400 96 147 2.0 2.0 0.00 0.00 0.00 37 1016.0
20260831180900 95 124 0.0 1.0 0.00 0.00 0.00 38 1016.2
20260831180354 99 133 2.0 5.0 0.00 0.00 0.00 36 1016.3
20260831175853 98 177 3.0 5.0 0.00 0.00 0.00 37 1016.4
20260831175350 96 186 4.0 7.0 0.00 0.00 0.00 37 1016.4
20260831174846 96 164 3.0 6.0 0.00 0.00 0.00 37 1016.7
20260831174341 95 222 3.0 5.0 0.00 0.00 0.00 40 1016.6
20260831173840 96 183 4.0 6.0 0.00 0.00 0.00 41 1016.3
20260831173340 95 156 1.0 2.0 0.00 0.00 0.00 40 1016.8
20260831172835 96 207 6.0 8.0 0.00 0.00 0.00 40 1016.9
20260831172331 95 188 3.0 5.0 0.00 0.00 0.00 41 1016.8
20260831171830 96 199 6.0 7.0 0.00 0.00 0.00 40 1016.9
20260831171327 96 223 5.0 9.0 0.00 0.00 0.00 40 1017.0
20260831170823 97 140 1.0 2.0 0.00 0.00 0.00 40 1017.1
20260831170319 95 126 1.0 2.0 0.00 0.00 0.00 41 1017.2
20260831165815 95 156 3.0 6.0 0.00 0.00 0.00 42 1017.1
20260831165312 95 184 3.0 3.0 0.00 0.00 0.00 42 1017.2
20260831164807 94 146 3.0 5.0 0.00 0.00 0.00 43 1017.1
20260831164303 95 144 5.0 9.0 0.00 0.00 0.00 42 1017.2
20260831163759 95 154 7.0 9.0 0.00 0.00 0.00 42 1017.3
20260831163254 95 186 4.0 5.0 0.00 0.00 0.00 43 1017.2
20260831162753 94 155 2.0 3.0 0.00 0.00 0.00 44 1017.3
20260831162248 93 194 4.0 5.0 0.00 0.00 0.00 44 1017.3
20260831161741 92 200 5.0 6.0 0.00 0.00 0.00 47 1017.4
20260831161238 91 198 4.0 5.0 0.00 0.00 0.00 51 1017.1
20260831160732 92 211 3.0 5.0 0.00 0.00 0.00 47 1017.3
20260831160227 90 229 7.0 8.0 0.00 0.00 0.00 50 1017.3
20260831155726 89 212 3.0 5.0 0.00 0.00 0.00 52 1017.2
20260831155222 89 219 6.0 7.0 0.00 0.00 0.00 53 1017.2
20260831154718 89 221 6.0 7.0 0.00 0.00 0.00 52 1017.3
20260831154214 89 224 7.0 8.0 0.00 0.00 0.00 53 1017.0
20260831153713 89 226 7.0 8.0 0.00 0.00 0.00 54 1016.9
20260831153208 89 206 6.0 7.0 0.00 0.00 0.00 55 1016.9
20260831152704 87 225 5.0 7.0 0.00 0.00 0.00 56 1016.8
20260831152200 87 211 6.0 8.0 0.00 0.00 0.00 57 1016.8
20260831151700 86 210 5.0 6.0 0.00 0.00 0.00 58 1016.9
20260831151154 87 222 9.0 9.0 0.00 0.00 0.00 57 1017.0
20260831150649 88 209 3.0 3.0 0.00 0.00 0.00 57 1017.0
20260831150145 87 197 5.0 7.0 0.00 0.00 0.00 57 1017.1
20260831145644 87 164 2.0 2.0 0.00 0.00 0.00 57 1017.1
20260831145141 87 131 2.0 3.0 0.00 0.00 0.00 57 1016.9
20260831144636 87 143 0.0 1.0 0.00 0.00 0.00 58 1017.1
20260831144132 87 168 3.0 3.0 0.00 0.00 0.00 58 1017.0
20260831143631 86 183 3.0 3.0 0.00 0.00 0.00 59 1017.0
20260831143126 86 156 3.0 3.0 0.00 0.00 0.00 60 1016.9
20260831142623 86 121 0.0 1.0 0.00 0.00 0.00 60 1017.0
20260831142118 86 177 4.0 5.0 0.00 0.00 0.00 61 1017.0
20260831141617 85 146 2.0 3.0 0.00 0.00 0.00 62 1016.7
20260831141113 85 147 3.0 3.0 0.00 0.00 0.00 62 1016.8
20260831140612 85 128 0.0 1.0 0.00 0.00 0.00 62 1016.7
20260831140107 84 135 1.0 1.0 0.00 0.00 0.00 63 1016.9
20260831135604 84 133 2.0 2.0 0.00 0.00 0.00 64 1016.8
20260831135100 83 129 1.0 1.0 0.00 0.00 0.00 65 1016.7
20260831134556 84 125 1.0 1.0 0.00 0.00 0.00 64 1016.9
20260831134056 83 158 2.0 3.0 0.00 0.00 0.00 65 1016.6
20260831133556 83 123 2.0 2.0 0.00 0.00 0.00 66 1016.6
20260831133051 82 135 0.0 1.0 0.00 0.00 0.00 67 1016.3
20260831132547 82 125 1.0 1.0 0.00 0.00 0.00 68 1016.3
20260831132040 81 146 1.0 2.0 0.00 0.00 0.00 68 1016.2
20260831131535 80 124 0.0 0.0 0.00 0.00 0.00 70 1016.2
20260831131031 79 132 1.0 2.0 0.00 0.00 0.00 71 1016.3
20260831130526 78 85 1.0 2.0 0.00 0.00 0.00 72 1015.9
20260831130022 78 117 0.0 1.0 0.00 0.00 0.00 72 1016.0
20260831125515 78 124 1.0 2.0 0.00 0.00 0.00 73 1015.9
20260831125010 78 136 1.0 1.0 0.00 0.00 0.00 73 1015.8
20260831124506 77 121 1.0 1.0 0.00 0.00 0.00 74 1015.8
20260831124001 77 117 0.0 0.0 0.00 0.00 0.00 74 1015.4
20260831123455 77 114 1.0 1.0 0.00 0.00 0.00 75 1015.8
20260831122950 77 98 0.0 1.0 0.00 0.00 0.00 75 1015.5
20260831122445 77 118 0.0 1.0 0.00 0.00 0.00 75 1015.5
20260831121940 77 120 0.0 1.0 0.00 0.00 0.00 75 1015.2
20260831121435 77 117 0.0 1.0 0.00 0.00 0.00 75 1015.1
20260831120925 77 112 0.0 1.0 0.00 0.00 0.00 75 1015.1
20260831120419 77 109 0.0 0.0 0.00 0.00 0.00 75 1015.1
20260831115914 77 109 0.0 0.0 0.00 0.00 0.00 75 1015.2
20260831115411 77 109 0.0 0.0 0.00 0.00 0.00 75 1015.0
20260831114910 78 116 0.0 1.0 0.00 0.00 0.00 75 1015.1
20260831114409 78 116 0.0 0.0 0.00 0.00 0.00 74 1014.9
20260831113904 78 116 0.0 1.0 0.00 0.00 0.00 74 1015.1
20260831113359 78 121 0.0 1.0 0.00 0.00 0.00 74 1015.0
20260831112853 79 126 0.0 0.0 0.00 0.00 0.00 73 1015.0
20260831112348 79 133 1.0 1.0 0.00 0.00 0.00 72 1015.1
20260831111843 79 138 0.0 1.0 0.00 0.00 0.00 72 1015.0
20260831111340 79 138 1.0 1.0 0.00 0.00 0.00 72 1014.8
20260831110835 79 137 2.0 3.0 0.00 0.00 0.00 72 1015.1
20260831110329 79 154 2.0 2.0 0.00 0.00 0.00 72 1014.9
20260831105828 79 149 2.0 3.0 0.00 0.00 0.00 71 1014.7
20260831105324 79 135 1.0 2.0 0.00 0.00 0.00 72 1014.5
20260831104825 79 132 0.0 0.0 0.00 0.00 0.00 72 1014.7
20260831104321 79 132 0.0 0.0 0.00 0.00 0.00 72 1014.7
20260831103821 80 132 0.0 0.0 0.00 0.00 0.00 71 1014.5
20260831103317 80 132 0.0 0.0 0.00 0.00 0.00 71 1014.4
20260831102811 80 132 0.0 0.0 0.00 0.00 0.00 70 1014.6
20260831102306 80 131 0.0 0.0 0.00 0.00 0.00 70 1014.5
20260831101802 80 132 0.0 0.0 0.00 0.00 0.00 70 1014.5
20260831101257 80 133 1.0 1.0 0.00 0.00 0.00 70 1014.6
20260831100753 80 131 0.0 0.0 0.00 0.00 0.00 70 1014.4
20260831100249 80 131 0.0 0.0 0.00 0.00 0.00 69 1014.6
20260831095748 81 131 0.0 1.0 0.00 0.00 0.00 69 1014.5
20260831095242 81 133 1.0 1.0 0.00 0.00 0.00 68 1014.5
20260831094737 81 128 0.0 0.0 0.00 0.00 0.00 67 1014.6
20260831094233 82 135 1.0 2.0 0.00 0.00 0.00 67 1014.6
20260831093730 82 146 2.0 2.0 0.00 0.00 0.00 67 1014.7
20260831093224 82 129 0.0 2.0 0.00 0.00 0.00 66 1014.4
20260831092721 82 144 1.0 1.0 0.00 0.00 0.00 66 1014.6
20260831092216 82 149 2.0 2.0 0.00 0.00 0.00 65 1014.5
20260831091715 82 162 1.0 1.0 0.00 0.00 0.00 65 1014.5
20260831091211 82 191 4.0 5.0 0.00 0.00 0.00 65 1014.6
20260831090711 82 165 2.0 2.0 0.00 0.00 0.00 64 1014.6
20260831090208 82 153 1.0 1.0 0.00 0.00 0.00 64 1014.6
20260831085703 82 172 4.0 5.0 0.00 0.00 0.00 63 1014.6
20260831085158 82 167 3.0 3.0 0.00 0.00 0.00 63 1014.5
20260831084653 83 147 1.0 2.0 0.00 0.00 0.00 63 1014.5
20260831084149 83 133 1.0 1.0 0.00 0.00 0.00 62 1014.6
20260831083645 83 144 2.0 3.0 0.00 0.00 0.00 62 1014.4
20260831083140 83 149 1.0 1.0 0.00 0.00 0.00 61 1014.3
20260831082638 83 146 1.0 1.0 0.00 0.00 0.00 61 1014.5
20260831082135 83 178 2.0 3.0 0.00 0.00 0.00 61 1014.3
20260831081629 83 161 1.0 1.0 0.00 0.00 0.00 60 1014.4
20260831081125 83 148 1.0 1.0 0.00 0.00 0.00 59 1014.3
20260831080621 83 152 0.0 1.0 0.00 0.00 0.00 59 1014.4
20260831080115 83 161 1.0 2.0 0.00 0.00 0.00 59 1014.3
20260831075612 84 162 2.0 2.0 0.00 0.00 0.00 58 1014.4
20260831075107 84 149 0.0 1.0 0.00 0.00 0.00 57 1014.2
20260831074606 84 187 1.0 2.0 0.00 0.00 0.00 57 1014.2
20260831074101 84 168 2.0 2.0 0.00 0.00 0.00 56 1014.4
20260831073556 84 167 1.0 2.0 0.00 0.00 0.00 56 1014.3
20260831073055 84 145 0.0 1.0 0.00 0.00 0.00 55 1014.1
20260831072550 84 148 1.0 1.0 0.00 0.00 0.00 55 1014.2
20260831072047 84 107 4.0 6.0 0.00 0.00 0.00 54 1014.1
20260831071545 85 155 2.0 3.0 0.00 0.00 0.00 53 1014.4
20260831071041 85 169 2.0 3.0 0.00 0.00 0.00 53 1014.0
20260831070540 85 174 3.0 7.0 0.00 0.00 0.00 52 1014.1
20260831070035 85 184 5.0 8.0 0.00 0.00 0.00 52 1014.1
20260831065533 85 131 3.0 7.0 0.00 0.00 0.00 51 1014.3
20260831065033 85 170 1.0 1.0 0.00 0.00 0.00 51 1014.1
20260831064528 86 169 2.0 2.0 0.00 0.00 0.00 50 1013.9
20260831064024 85 159 1.0 2.0 0.00 0.00 0.00 50 1014.0
20260831063520 85 171 3.0 6.0 0.00 0.00 0.00 50 1014.2
20260831063019 85 160 4.0 8.0 0.00 0.00 0.00 50 1014.1
20260831062514 85 140 3.0 7.0 0.00 0.00 0.00 50 1014.1
20260831062014 86 175 2.0 5.0 0.00 0.00 0.00 49 1014.1
20260831061512 86 153 2.0 5.0 0.00 0.00 0.00 49 1013.9
20260831061009 86 157 2.0 3.0 0.00 0.00 0.00 49 1014.1
20260831060508 86 160 2.0 2.0 0.00 0.00 0.00 48 1014.2
20260831060004 86 154 3.0 6.0 0.00 0.00 0.00 48 1014.2
20260831055458 86 168 3.0 6.0 0.00 0.00 0.00 48 1014.2
20260831054954 87 140 3.0 5.0 0.00 0.00 0.00 47 1014.3
20260831054454 87 158 3.0 6.0 0.00 0.00 0.00 47 1014.2
20260831053953 87 161 3.0 6.0 0.00 0.00 0.00 47 1014.2
20260831053451 87 153 1.0 1.0 0.00 0.00 0.00 47 1014.2
20260831052946 87 150 1.0 1.0 0.00 0.00 0.00 47 1014.1
20260831052445 87 182 3.0 6.0 0.00 0.00 0.00 46 1014.2
20260831051944 87 206 2.0 5.0 0.00 0.00 0.00 46 1014.3
20260831051443 87 155 3.0 5.0 0.00 0.00 0.00 45 1014.3
20260831050937 88 160 2.0 3.0 0.00 0.00 0.00 45 1014.2
20260831050437 88 138 3.0 3.0 0.00 0.00 0.00 45 1014.3
20260831045936 87 172 1.0 2.0 0.00 0.00 0.00 45 1014.6
20260831045435 87 138 2.0 3.0 0.00 0.00 0.00 45 1014.2
20260831044931 87 169 4.0 6.0 0.00 0.00 0.00 44 1014.1
20260831044425 87 150 2.0 3.0 0.00 0.00 0.00 44 1014.1
20260831043921 87 170 5.0 8.0 0.00 0.00 0.00 44 1014.2
20260831043421 87 171 3.0 6.0 0.00 0.00 0.00 44 1014.0
20260831042917 87 160 4.0 6.0 0.00 0.00 0.00 44 1014.0
20260831042415 88 169 7.0 8.0 0.00 0.00 0.00 43 1014.1
20260831041905 88 150 3.0 6.0 0.00 0.00 0.00 43 1014.3
20260831041404 88 158 3.0 5.0 0.00 0.00 0.00 43 1014.2
20260831040859 88 155 5.0 8.0 0.00 0.00 0.00 43 1014.2
20260831040354 88 180 4.0 6.0 0.00 0.00 0.00 42 1014.4
20260831035852 89 143 6.0 7.0 0.00 0.00 0.00 42 1014.3
20260831035351 89 180 3.0 5.0 0.00 0.00 0.00 42 1014.2
20260831034846 89 167 4.0 6.0 0.00 0.00 0.00 41 1014.1
20260831034341 89 155 3.0 5.0 0.00 0.00 0.00 41 1014.0
20260831033837 90 169 4.0 6.0 0.00 0.00 0.00 40 1013.9
20260831033337 89 158 7.0 9.0 0.00 0.00 0.00 40 1014.0
20260831032832 90 163 4.0 5.0 0.00 0.00 0.00 40 1013.8
20260831032326 90 168 5.0 7.0 0.00 0.00 0.00 39 1013.8
20260831031821 90 175 4.0 5.0 0.00 0.00 0.00 39 1013.9
20260831031320 90 156 6.0 8.0 0.00 0.00 0.00 39 1013.9
20260831030816 90 175 5.0 7.0 0.00 0.00 0.00 39 1013.6
20260831030314 90 175 4.0 6.0 0.00 0.00 0.00 39 1013.9
20260831025808 91 137 3.0 6.0 0.00 0.00 0.00 38 1013.4
20260831025306 91 152 3.0 5.0 0.00 0.00 0.00 38 1013.5
20260831024758 91 158 4.0 6.0 0.00 0.00 0.00 38 1013.7
20260831024257 91 164 2.0 3.0 0.00 0.00 0.00 38 1013.4
20260831023756 91 117 1.0 2.0 0.00 0.00 0.00 38 1013.5
20260831023255 91 146 2.0 3.0 0.00 0.00 0.00 38 1013.4
20260831022750 91 121 2.0 2.0 0.00 0.00 0.00 37 1013.0
20260831022249 91 155 3.0 3.0 0.00 0.00 0.00 37 1013.3
20260831021745 92 174 3.0 5.0 0.00 0.00 0.00 37 1012.9
20260831021244 92 152 2.0 2.0 0.00 0.00 0.00 37 1012.9
20260831020741 92 125 3.0 3.0 0.00 0.00 0.00 37 1012.6
20260831020239 92 161 2.0 3.0 0.00 0.00 0.00 37 1012.7
20260831015735 92 161 3.0 5.0 0.00 0.00 0.00 37 1012.6
20260831015231 92 156 2.0 2.0 0.00 0.00 0.00 36 1012.5
20260831014726 92 157 3.0 5.0 0.00 0.00 0.00 36 1012.4
20260831014226 92 154 3.0 5.0 0.00 0.00 0.00 36 1012.4
20260831013722 93 108 3.0 3.0 0.00 0.00 0.00 35 1012.4
20260831013221 93 130 5.0 7.0 0.00 0.00 0.00 35 1012.2
20260831012716 93 114 2.0 2.0 0.00 0.00 0.00 34 1012.0
20260831012212 94 135 2.0 2.0 0.00 0.00 0.00 34 1012.3
20260831011710 94 138 2.0 2.0 0.00 0.00 0.00 33 1012.0
20260831011206 95 137 4.0 7.0 0.00 0.00 0.00 33 1012.4
20260831010702 95 152 2.0 2.0 0.00 0.00 0.00 32 1012.3
20260831010157 95 147 3.0 5.0 0.00 0.00 0.00 32 1012.2
20260831005652 96 150 3.0 3.0 0.00 0.00 0.00 31 1012.0
20260831005147 96 173 2.0 3.0 0.00 0.00 0.00 31 1012.0
20260831004643 96 128 3.0 3.0 0.00 0.00 0.00 31 1011.8
20260831004139 97 156 3.0 5.0 0.00 0.00 0.00 30 1011.9
20260831003635 97 143 3.0 3.0 0.00 0.00 0.00 30 1011.8
20260831003130 98 165 3.0 3.0 0.00 0.00 0.00 30 1011.8
20260831002628 98 133 0.0 1.0 0.00 0.00 0.00 29 1011.6
20260831002124 99 149 2.0 3.0 0.00 0.00 0.00 29 1011.8
20260831001620 100 157 2.0 3.0 0.00 0.00 0.00 28 1011.9
20260831001115 100 158 2.0 6.0 0.00 0.00 0.00 28 1011.7
20260831000612 100 137 1.0 1.0 0.00 0.00 0.00 28 1012.0
20260831000111 101 128 1.0 1.0 0.00 0.00 0.00 28 1011.9
20260830235610 101 173 2.0 2.0 0.00 0.00 0.00 28 1011.8
20260830235105 102 172 3.0 5.0 0.00 0.00 0.00 27 1011.8
20260830234600 102 154 1.0 1.0 0.00 0.00 0.00 28 1011.8
20260830234055 102 148 3.0 6.0 0.00 0.00 0.00 28 1012.1
20260830233550 101 193 3.0 3.0 0.00 0.00 0.00 28 1012.1
20260830233046 102 193 5.0 6.0 0.00 0.00 0.00 27 1011.9
20260830232542 102 181 4.0 6.0 0.00 0.00 0.00 27 1012.1
20260830232038 103 147 1.0 3.0 0.00 0.00 0.00 27 1012.1
20260830231534 103 146 1.0 2.0 0.00 0.00 0.00 27 1012.0
20260830231033 102 197 6.0 9.0 0.00 0.00 0.00 27 1012.1
20260830230528 103 143 1.0 2.0 0.00 0.00 0.00 27 1012.0
20260830230023 103 148 3.0 3.0 0.00 0.00 0.00 27 1012.0